Weather Roundup
Issued by NWS

Home | Current Version | Previous Version | Text Only | Print | Product List | Glossary On
Versions: 1 2 3 4 5 6 7 8 9 10 11 12 13 14 15 16 17 18 19 20 21 22 23 24 25 26 27 28 29 30 31 32 33 34 35 36 37 38 39 40 41 42 43 44 45 46 47 48 49 50
000
NZUS93 KARX 261110
HRRWXR

CURRENT HOURLY OBSERVATIONS ACROSS
MUCH OF THE UPPER MISSISSIPPI VALLEY
NATIONAL WEATHER SERVICE LA CROSSE WI
500 AM CST MON JAN 26 2015


...SOUTHEAST MINNESOTA...


CITY           SKY/WX    TMP DP  RH WIND       PRES   REMARKS
ROCHESTER      LGT SNOW  25  22  88 S16       29.81F FOG     WCI  12
ROCHESTER/MAYO CLOUDY    25  21  84 S10       29.83F WCI  15
WINONA         FLURRIES  27  21  80 SE6       29.87F WCI  20
AUSTIN         MIX PCPN  27  25  93 SW9       29.84R WCI  17
ALBERT LEA     LGT SNOW  28  28 100 S9        29.82R WCI  20
DODGE CENTER   LGT SNOW  27  25  93 S16       29.80F WCI  14
PRESTON        CLOUDY    24  22  91 S12       29.84F WCI  13
OWATONNA       LGT SNOW  28  27  93 S15       29.77F WCI  17
FARIBAULT      FLURRIES  28  27  93 S12G18    29.75F WCI  18
$$

...ELSEWHERE IN MINNESOTA...


CITY           SKY/WX    TMP DP  RH WIND       PRES   REMARKS
MINNEAPOLIS    CLOUDY    26  21  81 SE7       29.77S WCI  18
INTNL FALLS    LGT SNOW  22  19  89 VRB7      29.55F FOG     WCI  13
DULUTH         FRZ DRZL  19  16  88 S9        29.67S WCI   8
RED WING       LGT SNOW  27  21  80 S5        29.80F WCI  21
REDWOOD FALLS  MIX PCPN  34  31  88 SW25G33   29.67F WCI  21
MANKATO        CLOUDY    32  27  80 S21G29    29.71F WCI  20
WORTHINGTON    CLOUDY    34  28  80 S14       29.76F WCI  24
FAIRMONT       CLOUDY    32  28  86 SW20      29.77F WCI  20
$$

...SOUTHWEST WISCONSIN...


CITY           SKY/WX    TMP DP  RH WIND       PRES   REMARKS
LA CROSSE      CLOUDY    23  14  68 S14       29.91F WCI  11
PRAIRIE DU CHI CLOUDY    21  12  66 CALM      29.96F
BOSCOBEL       CLOUDY    20  13  74 CALM      29.96F
LONE ROCK      CLOUDY    16  12  84 SE5       29.95F WCI   9
PLATTEVILLE    CLOUDY    18  14  83 SE6       29.93F WCI  10
FORT MC COY    CLOUDY    20  12  71 S3        29.92F
CAMP DOUGLAS   CLOUDY    18  14  86 S8        29.92F WCI   7
VIROQUA        CLOUDY    19  13  79 S9        29.89F WCI   7
WIS DELLS      CLOUDY    15  11  83 CALM      29.93F
$$

...ELSEWHERE IN WISCONSIN...


CITY           SKY/WX    TMP DP  RH WIND       PRES   REMARKS
MILWAUKEE      MOCLDY    18  11  74 W3        29.96F
MADISON        CLOUDY    15  10  80 CALM      29.95F
GREEN BAY      MOCLDY    13   9  84 CALM      29.97S
EAU CLAIRE     FLURRIES  21  14  74 SE10      29.82F WCI  10
BLACK RVR FLS  CLOUDY    20  12  71 SE5       29.89F WCI  13
MEDFORD        CLOUDY    14   8  78 S8        29.84F WCI   3
WAUSAU         CLOUDY    14   7  73 S5        29.89F WCI   6
WIS RAPIDS     CLOUDY    14   7  73 S6        29.92F WCI   5
MARSHFIELD     CLOUDY    16   8  71 S8        29.88F WCI   5
RICE LAKE      LGT SNOW  20  17  88 SE9       29.81F WCI   9
$$

...NORTHEAST IOWA...


CITY           SKY/WX    TMP DP  RH WIND       PRES   REMARKS
DECORAH        CLOUDY    23  18  80 S9G15     29.88F WCI  13
MASON CITY     CLOUDY    29  26  89 SW13      29.87F WCI  19
CHARLES CITY   CLOUDY    28  27  93 S13       29.87F WCI  18
OELWEIN        CLOUDY    23  18  80 S13       29.91F WCI  11
$$

...ELSEWHERE IN IOWA...


CITY           SKY/WX    TMP DP  RH WIND       PRES   REMARKS
DES MOINES     CLOUDY    32  26  78 W6        30.00R WCI  26
IOWA CITY      CLOUDY    22  16  78 S3        30.03R
FORT DODGE     CLOUDY    30  27  86 SW12      29.90F WCI  21
$$

...NORTHERN ILLINOIS...


CITY           SKY/WX    TMP DP  RH WIND       PRES   REMARKS
CHICAGO-OHARE  PTCLDY    18  13  80 CALM      29.96F
CHICAGO-MIDWAY PTCLDY    23  16  74 N5        29.97S WCI  17
MOLINE         CLOUDY    16  12  84 CALM      30.01F
ROCKFORD       MOCLDY    14   9  80 NW5       30.00F WCI   6
PEORIA         PTCLDY    20  14  77 NW3       30.00F
$$

NOTE: "FAIR" INDICATES FEW OR NO CLOUDS BELOW 12,000 FEET WITH NO
SIGNIFICANT WEATHER AND/OR OBSTRUCTIONS TO VISIBILITY. WIND
SPEEDS ARE IN MILES-PER-HOUR.



USA.gov is the U.S. government's official web portal to all federal, state and local government web resources and services.